Location: Tr�vern
(48.0333°N, 4.6000°W)
Time: 08:26:09
(UTC+00:00)

Cosmos 1378 - Pass Details

Date: 14 July 2020
Orbit: 493 x 500 km, 82.5° (Epoch: 04 August)

Event Time Altitude Azimuth Distance (km) Brightness Sun altitude
Rises 03:25:18 0° 347° (NNW) 2,607 7.3 -9.4°
Reaches altitude 10° 03:27:27 10° 345° (NNW) 1,718 6.3 -9.2°
Maximum altitude 03:31:10 64° 264° (W) 561 3.2 -8.8°
Drops below altitude 10° 03:34:52 10° 182° (S) 1,704 5.4 -8.3°
Enters shadow 03:36:19 - 180° (S) 2,306 6.1 -8.2°
